Theta_e
314 314 314 313 314 313 313 313 312 311 311 311 310 311 311 312 311 310 310 310 310 311 311 311 311 308 311 309 311 311 309 310 308 308 308 308 308 307 308 310 309 309 310 310 309 309 309
317 317 317 317 317 317 316 315 314 313 312 311 310 310 310 310 311 310 309 309 308 311 312 311 311 310 311 309 312 309 309 310 309 309 309 308 309 309 309 310 310 310 310 309 309 309 309
315 315 314 313 312 314 315 316 316 316 314 312 311 310 310 311 311 310 306 308 309 310 312 311 310 310 311 311 311 309 310 310 310 310 309 309 309 309 308 311 309 311 311 306 309 310 308
312 311 310 310 310 311 313 313 314 315 316 315 313 311 311 311 311 310 305 307 308 308 308 310 311 311 310 310 310 308 310 308 308 310 311 311 310 309 311 310 305 307 304 305 306 306 308
308 308 308 308 308 310 310 311 311 313 313 315 315 314 312 311 310 310 306 306 309 309 308 310 310 310 311 308 308 310 308 308 309 310 310 311 310 309 308 304 300 302 305 308 306 308 308
306 306 306 306 306 306 307 308 308 310 311 312 313 315 314 313 311 311 308 306 309 311 311 310 310 304 307 309 310 309 309 309 309 309 309 309 305 307 304 302 302 307 308 308 307 307 308
305 305 306 306 306 306 306 306 306 307 308 310 312 313 315 314 313 309 307 305 303 300 304 307 308 309 308 308 308 307 310 309 309 307 308 308 303 303 310 309 308 309 309 309 306 306 308
304 305 305 305 305 307 306 306 305 305 306 307 310 311 315 314 313 308 306 305 305 305 305 304 305 306 308 308 308 307 309 309 308 306 308 302 304 307 310 309 310 310 310 307 306 307 309
304 306 306 305 305 305 306 307 306 305 304 305 307 309 310 312 313 308 307 306 306 306 305 302 306 307 306 307 307 306 308 308 308 309 309 306 306 310 311 310 310 309 309 308 308 308 306
305 306 306 306 306 306 307 305 306 306 305 303 303 306 309 310 310 308 308 307 307 306 298 298 306 308 307 306 309 309 309 308 309 308 309 308 308 309 310 311 307 307 306 309 310 307 305
305 305 305 305 305 306 305 306 306 306 305 303 302 304 308 311 312 308 308 306 306 302 296 299 307 308 308 308 309 310 308 308 306 310 305 302 310 311 312 310 308 307 310 310 309 300 301
304 305 305 305 305 305 305 305 306 305 304 303 303 304 308 310 310 309 308 307 305 303 298 300 308 309 310 309 311 309 310 308 308 309 309 307 307 309 308 310 309 309 308 302 297 297 299
304 304 304 304 304 304 305 304 305 305 304 302 304 305 307 309 308 308 308 303 306 302 300 304 309 311 309 311 310 311 312 311 307 301 304 305 307 310 309 311 308 307 304 299 301 298 305
303 303 304 304 303 303 304 303 304 303 302 301 304 306 306 306 309 309 307 303 302 302 300 306 310 311 311 311 311 312 310 309 308 305 304 302 299 309 310 310 308 309 306 301 301 301 304
302 303 303 303 303 301 301 301 301 302 302 303 305 306 306 306 308 308 306 306 307 303 303 307 308 311 307 309 308 311 310 308 306 307 303 306 305 306 310 309 308 308 308 304 302 303 309
301 302 302 302 301 300 301 302 302 301 302 304 305 306 306 307 308 308 310 308 307 304 309 309 310 307 306 308 308 309 307 306 309 308 307 305 305 305 307 308 307 308 305 305 304 308 304
300 301 301 302 302 302 302 302 302 302 303 304 305 304 304 307 307 308 310 307 309 307 308 309 307 306 306 306 306 308 306 304 307 308 307 306 306 306 306 309 307 309 309 306 303 300 302
299 300 300 301 300 300 301 301 302 302 303 304 305 304 304 306 308 308 309 308 308 308 307 308 306 305 306 306 307 307 306 303 303 307 310 307 305 307 307 305 305 306 307 306 304 303 309
298 299 300 300 299 299 299 298 299 301 302 304 305 305 305 306 306 308 307 307 308 309 308 308 308 308 306 307 309 304 302 304 305 306 307 307 306 304 305 305 304 306 306 306 303 301 304
297 298 299 299 299 298 296 296 296 299 302 302 303 304 304 305 303 305 306 308 309 307 307 308 308 308 308 308 306 307 306 306 306 307 310 307 305 306 305 306 304 305 304 303 303 307 308
297 297 297 297 297 297 297 296 293 295 301 301 300 303 302 302 304 304 305 306 306 307 305 305 308 307 307 309 309 308 307 307 306 306 305 305 307 305 305 305 305 305 306 306 307 307 308
296 296 297 297 297 297 296 296 296 293 300 300 298 302 301 301 303 303 303 306 305 304 304 305 305 306 305 306 309 308 308 309 307 305 306 307 308 307 307 306 306 308 306 306 306 306 306
296 296 296 296 296 296 295 296 296 293 298 299 298 299 301 299 301 301 302 304 305 304 303 303 304 304 305 305 306 303 302 302 304 305 304 306 306 306 307 305 304 305 304 304 304 303 303
296 295 295 295 295 294 294 294 295 295 294 297 297 296 296 295 301 301 302 302 303 302 303 301 300 303 300 296 297 296 298 299 302 304 303 304 305 302 303 304 305 301 301 302 303 303 301
296 295 294 294 294 294 294 294 294 295 293 294 294 295 293 289 295 296 298 299 296 295 295 296 296 296 293 295 295 298 295 298 299 302 304 304 302 302 301 303 302 302 301 301 303 304 301
296 295 296 296 295 295 295 295 295 294 294 293 294 294 295 291 290 293 294 294 294 293 293 293 294 293 295 296 299 296 294 297 297 299 298 301 303 302 301 305 304 303 302 301 300 303 300
295 295 295 294 294 294 293 294 294 294 295 294 293 293 292 287 290 291 291 292 292 291 291 291 293 292 294 296 299 298 296 297 299 299 302 301 303 304 303 304 302 300 301 301 306 303 300
294 294 295 295 295 295 295 294 294 294 294 293 293 294 293 289 290 290 291 291 292 292 292 290 289 289 293 294 297 297 297 295 296 296 295 296 300 300 303 304 303 300 301 304 301 297 299
293 293 294 294 294 294 294 294 294 294 294 294 293 293 293 293 290 292 292 292 292 291 290 290 289 290 291 297 294 296 298 294 294 296 294 296 295 296 300 299 298 298 300 298 297 298 298
Wind_Speed
4 6 6 8 10 10 11 12 12 14 16 17 15 15 17 19 21 22 23 20 17 17 16 15 14 9 2 2 1 4 9 13 10 9 18 4 7 2 4 1 1 4 4 5 5 8 6
5 6 6 6 10 9 11 11 14 14 14 14 15 15 17 20 22 25 25 25 19 17 16 13 11 5 1 0 2 3 8 10 15 13 14 11 3 1 5 3 3 3 3 7 4 5 3
3 4 7 9 10 10 10 11 13 15 16 15 14 16 17 20 22 26 27 28 26 20 14 9 5 3 1 1 1 4 7 8 10 11 3 7 3 3 3 2 3 3 6 6 1 2 4
6 8 10 12 12 11 12 13 14 12 15 16 18 18 18 21 22 25 24 25 25 14 5 1 2 1 2 0 2 3 5 4 6 5 5 6 4 5 3 1 5 4 4 5 2 6 1
11 12 12 12 12 12 11 13 15 13 14 17 18 19 21 22 24 26 25 24 9 7 3 2 2 2 1 1 2 2 5 3 4 4 4 3 3 3 3 4 5 7 1 3 9 1 3
10 8 8 9 10 11 11 10 12 14 15 17 18 18 18 21 23 27 26 14 3 2 4 1 1 3 2 1 1 1 3 4 4 2 3 5 5 3 4 5 2 3 3 4 6 3 3
5 6 8 8 10 9 10 11 11 12 13 16 18 17 17 18 21 22 24 5 6 3 4 3 2 2 2 0 0 1 2 2 2 5 3 4 5 2 4 3 3 3 2 4 5 5 6
9 10 10 11 10 11 11 11 12 11 12 14 15 14 13 16 17 16 11 5 2 3 7 2 4 4 6 1 2 1 0 2 2 2 1 5 2 3 5 4 3 2 2 5 6 3 4
9 11 12 11 11 11 11 11 11 10 12 13 17 15 13 12 14 8 9 4 3 2 1 6 3 2 2 3 2 1 1 1 2 3 2 4 4 5 2 1 1 3 4 3 5 7 2
11 12 10 9 12 13 13 11 11 10 10 12 16 14 12 12 4 7 2 5 4 1 5 7 0 1 1 2 0 1 1 1 2 3 3 3 1 4 3 3 5 1 5 3 5 5 3
12 10 9 10 13 16 12 10 10 9 11 13 15 11 9 7 6 1 3 6 5 3 4 4 1 1 1 1 4 1 2 2 3 3 3 1 4 2 2 3 5 4 1 2 1 3 4
13 10 10 11 13 12 7 8 9 7 10 13 10 8 6 7 5 2 6 6 4 5 6 4 1 1 1 0 1 1 1 4 1 2 2 3 3 2 3 1 3 2 1 4 3 3 3
10 12 11 11 10 9 7 10 6 7 9 12 10 6 6 4 2 1 7 2 3 4 2 3 1 2 2 3 2 3 2 2 3 3 2 3 2 2 2 2 1 3 5 4 6 4 5
8 10 11 12 11 8 8 7 7 10 11 10 10 7 6 8 5 5 3 2 2 2 4 3 2 2 2 4 1 2 1 2 3 3 3 3 6 4 3 2 3 3 4 4 5 2 6
7 10 11 12 13 11 10 10 10 10 8 4 5 3 4 6 12 3 2 1 5 4 3 4 1 1 2 1 2 1 4 3 5 7 5 4 3 1 2 2 2 2 2 2 3 1 3
7 8 10 12 13 12 10 10 8 8 6 6 0 1 2 3 10 6 3 6 4 3 3 3 1 1 1 1 3 3 2 3 1 6 0 3 2 1 1 3 4 2 6 3 2 3 5
5 8 8 12 15 15 12 11 9 8 6 2 2 1 1 5 8 2 6 7 3 2 3 1 2 2 1 1 2 2 2 1 2 2 3 4 3 4 0 4 6 3 2 4 3 4 4
5 7 7 10 12 13 13 14 11 11 6 2 2 0 1 12 2 1 2 2 2 1 2 2 1 3 3 1 3 1 3 1 6 4 3 1 4 3 7 1 1 2 5 5 3 4 3
3 4 6 9 10 12 14 14 13 11 9 4 2 1 3 2 2 3 2 2 2 3 1 1 2 1 4 2 3 3 2 2 6 3 3 2 1 2 6 3 2 2 4 4 3 3 8
3 3 5 7 9 10 12 14 14 12 6 4 2 2 1 1 3 1 1 3 2 0 0 3 3 3 1 2 2 3 2 2 3 4 6 2 4 6 5 3 2 5 6 6 7 5 13
3 3 4 5 7 10 12 14 13 10 6 2 1 1 3 2 1 2 1 1 3 3 1 2 1 3 3 3 3 3 1 5 3 7 3 3 4 2 4 4 3 8 9 13 12 16 9
2 1 4 5 6 10 12 14 17 11 4 5 2 1 1 2 3 2 2 1 3 2 1 1 2 3 3 3 1 2 4 1 3 5 3 2 2 0 4 9 9 11 10 18 17 17 16
3 2 2 3 5 8 11 14 17 17 5 4 2 2 1 1 1 1 1 1 1 1 1 3 2 1 5 6 5 5 6 6 6 3 1 2 2 1 3 1 6 8 19 15 5 5 6
5 4 2 1 3 6 9 11 14 16 13 6 4 2 2 2 1 1 2 2 1 2 3 2 3 1 1 4 5 5 5 8 8 11 9 4 4 3 3 1 6 6 4 6 8 9 10
8 6 4 2 2 4 6 7 9 10 12 9 5 2 2 1 2 3 2 1 2 2 3 4 3 2 4 3 1 4 3 4 6 14 16 12 3 2 2 4 8 7 12 6 6 7 6
10 10 7 5 4 4 3 3 4 5 7 6 7 5 3 2 3 1 2 2 2 2 4 3 4 9 2 2 2 4 4 3 4 2 3 8 11 5 2 4 5 5 3 1 3 9 6
7 7 5 5 4 4 4 4 5 4 2 3 1 2 3 2 3 2 2 2 2 1 1 3 5 5 2 2 3 4 5 5 5 5 4 4 3 13 10 7 7 7 12 1 3 5 2
5 4 3 3 4 4 3 4 5 5 4 3 3 4 4 2 4 5 4 3 0 1 2 3 4 3 2 0 3 4 3 5 3 5 6 7 5 4 5 7 11 4 2 6 5 4 3
6 5 5 6 6 5 5 7 8 7 5 5 4 7 9 3 4 5 14 17 15 13 4 3 3 1 2 2 0 2 3 2 3 4 3 6 7 5 9 7 3 3 5 7 3 6 9
Wind_Direction
337 342 347 345 342 338 350 347 350 356 359 1 356 352 348 346 343 340 334 332 331 329 326 328 331 347 27 21 322 1 360 7 17 24 41 47 50 56 90 70 14 50 346 322 301 302 260
303 319 325 337 349 345 323 331 332 337 346 352 355 355 354 351 345 341 336 330 329 323 320 323 329 352 38 158 90 354 4 17 31 40 41 47 92 78 94 67 61 307 290 285 292 295 281
346 313 317 324 332 334 338 341 329 322 328 333 336 342 346 347 348 346 340 331 324 315 309 316 338 6 20 151 60 352 4 21 28 36 62 55 56 82 153 85 341 338 359 335 288 350 324
281 294 304 307 312 318 327 324 324 326 317 320 323 326 332 336 340 343 341 336 327 320 326 14 32 32 226 265 318 0 4 26 20 40 64 46 51 100 55 132 21 36 55 11 303 342 58
291 296 304 312 309 322 313 316 320 325 322 315 312 318 326 331 336 339 337 334 339 338 7 14 352 22 276 27 65 40 13 14 13 33 43 39 61 85 49 68 18 9 318 343 319 308 300
295 318 324 326 328 328 319 309 313 307 314 317 319 304 316 327 335 338 335 329 354 330 323 324 56 11 22 14 65 25 11 18 44 357 36 43 45 72 38 56 224 289 345 293 253 295 290
314 314 313 318 318 316 315 312 309 308 305 307 317 326 307 322 334 340 340 327 17 355 21 298 289 242 284 282 319 22 37 61 36 47 48 7 63 146 154 127 128 148 171 251 253 276 298
313 316 312 307 308 315 313 310 315 303 299 300 308 318 318 316 333 338 356 47 134 176 313 308 261 275 252 204 331 309 316 106 82 133 93 26 121 195 126 131 132 161 263 281 288 268 330
313 323 311 306 306 300 301 308 306 310 297 301 305 318 325 328 331 353 39 50 333 170 207 300 239 240 218 157 233 272 162 112 109 139 151 151 171 143 141 92 161 224 193 244 253 325 291
320 328 327 324 318 309 297 303 305 308 307 291 292 305 317 322 333 349 344 0 303 236 57 285 345 315 88 122 263 80 68 114 44 183 173 222 207 173 151 221 135 310 191 238 292 31 293
327 328 335 336 327 311 294 299 304 298 311 318 311 288 313 302 309 352 314 333 288 254 10 279 297 332 81 173 135 16 19 44 170 162 94 261 155 166 188 218 171 213 180 270 57 117 22
335 328 337 347 350 352 320 313 314 300 318 328 321 286 297 286 268 242 306 327 257 43 257 332 56 310 97 243 132 78 70 52 63 105 50 255 308 238 223 154 187 345 45 73 66 99 16
340 342 338 339 355 360 344 329 315 309 316 322 321 291 243 231 275 116 325 350 14 145 333 314 260 162 252 197 207 187 163 165 170 70 352 327 240 267 177 112 31 59 41 346 352 5 233
343 0 356 354 348 344 346 345 330 318 322 318 323 309 272 228 250 272 308 54 184 243 247 291 161 147 229 162 132 167 114 280 211 106 97 119 329 175 177 226 150 56 123 147 240 272 278
360 358 360 355 3 355 350 343 325 321 328 313 309 303 257 246 221 193 104 177 212 204 305 335 306 173 272 206 194 160 215 242 213 180 154 139 283 74 218 147 119 141 71 155 97 169 299
11 1 4 9 0 4 358 354 350 338 330 326 145 112 246 268 202 182 156 237 230 184 322 345 327 213 268 233 157 189 212 212 265 187 177 193 336 117 115 135 33 145 151 60 20 276 284
22 12 9 18 24 23 17 1 356 346 334 340 140 82 8 179 155 110 219 216 286 222 234 312 315 313 326 328 166 189 245 296 331 120 146 138 118 297 256 192 183 133 166 76 112 146 206
28 26 25 35 29 25 24 27 15 16 2 137 142 268 54 158 188 146 221 239 323 22 343 340 241 239 238 257 307 271 234 260 321 156 155 157 147 227 222 65 43 141 177 148 138 236 226
38 40 33 36 28 21 16 21 18 25 29 3 356 350 18 131 177 220 234 308 338 331 321 9 286 286 47 4 278 215 245 108 23 75 104 153 169 4 337 17 64 207 187 167 122 130 202
39 46 40 35 27 13 8 5 9 20 38 81 10 339 2 119 157 93 247 210 235 333 89 322 283 331 342 261 215 298 290 34 17 26 28 154 176 191 197 247 147 238 212 218 181 243 275
86 37 45 35 32 26 24 10 5 5 33 127 61 27 356 343 15 232 335 311 210 234 92 304 199 65 90 269 302 241 316 341 48 357 59 96 219 224 249 278 260 255 246 244 239 249 244
156 71 67 54 44 36 25 20 11 7 43 71 107 353 87 11 332 305 145 305 204 295 294 241 238 171 161 241 294 336 13 336 327 350 39 354 234 17 254 242 245 258 248 249 250 257 268
160 137 79 40 32 37 25 28 21 16 39 91 43 49 276 255 179 80 274 31 359 348 355 353 341 56 241 250 235 226 218 243 252 209 235 240 194 204 257 299 308 276 240 244 220 195 199
215 240 234 329 22 37 29 27 26 24 35 69 38 60 75 249 228 206 353 1 34 23 330 305 352 261 104 320 265 271 244 241 231 230 209 209 189 162 258 254 250 251 228 189 207 243 240
220 236 240 240 333 6 18 22 28 26 32 50 32 42 95 280 277 307 231 225 326 304 254 264 281 308 326 278 280 318 326 333 253 231 227 216 183 265 226 215 297 300 284 143 182 255 229
228 230 231 251 257 279 306 341 6 16 19 46 48 28 45 64 284 4 334 0 277 274 322 270 336 316 273 174 140 190 221 240 283 297 16 191 209 198 114 260 258 248 246 153 140 297 166
233 240 243 259 267 274 295 297 288 291 301 3 6 14 71 102 279 172 215 219 156 118 246 306 336 332 356 190 197 200 228 208 222 216 185 138 187 217 223 248 264 239 273 134 232 239 300
236 239 248 257 262 279 298 303 296 305 302 260 252 231 194 185 272 209 207 195 180 117 164 280 356 347 344 151 217 243 220 227 214 214 192 194 194 184 209 233 263 236 95 190 230 286 291
239 245 258 265 268 280 289 281 272 271 268 258 238 226 235 204 252 259 263 258 242 226 175 218 212 212 257 268 197 311 301 308 217 241 254 242 214 198 191 213 259 302 266 260 246 285 306